Home   Weather   Waltrop   Past weeks
Flag for Germany

Past Weather in Waltrop, North Rhine-Westphalia, Germany — Yesterday and Last 2 Weeks

Now
55 °F

Passing clouds.


Feels Like: 55 °F
Forecast: 73 / 43 °F
Wind: 5 mph from Southeast

Location: Dortmund / Wickede

Current Time: Sep 20, 2019 at 11:52:02 am

Latest Report: Sep 20, 2019 at 10:50 am


Visibility: N/A

Pressure: 30.42 "Hg

Humidity: 59%

Dew Point: 41 °F

Location of WaltropLocation

Past Weather in Waltrop — Graph

°F

Waltrop Temperature Yesterday

Maximum temperature yesterday: 61 °F (at 3:20 pm)
Minimum temperature yesterday: 39 °F (at 6:20 am)
Average temperature yesterday: 50 °F

High & Low Weather Summary for the Past Weeks

 TemperatureHumidityPressure
High75 °F (Sep 15, 4:20 pm)100% (Sep 6, 4:20 am)30.57 "Hg (Sep 6, 4:20 am)
Low39 °F (Sep 19, 6:20 am)29% (Sep 15, 4:20 pm)29.92 "Hg (Sep 9, 5:50 pm)
Average56 °F77%30.21 "Hg
* Reported Sep 5 10:20 am — Sep 20 10:20 am, Waltrop. Weather by CustomWeather, © 2019

Note: Actual official high and low records may vary slightly from our data, if they occured in-between our weather recording intervals... More about our weather records

Advertising

Waltrop Weather History for the Previous 24 Hours

Scroll right to see more
 ConditionsComfort  
Time TempWeatherWind HumidityBarometerVisibility
10:20 am
Fri, Sep 20
52 °FPassing clouds.5 mph72%30.42 "HgN/A
9:50 am50 °FPassing clouds.5 mph71%30.42 "HgN/A
9:20 am46 °FSunny.5 mph82%30.42 "Hg10 mi
8:50 am45 °FSunny.7 mph81%30.42 "Hg10 mi
8:20 am43 °FSunny.7 mph87%30.39 "Hg10 mi
7:50 am41 °FSunny.7 mph87%30.39 "Hg10 mi
7:20 am39 °FSunny.7 mph93%30.39 "Hg10 mi
6:50 am39 °FClear.3 mph93%30.39 "Hg10 mi
5:50 am39 °FClear.3 mph93%30.39 "Hg10 mi
5:20 am41 °FClear.5 mph93%30.39 "Hg10 mi
4:50 am41 °FClear.1 mph93%30.39 "HgN/A
4:20 am43 °FClear.3 mph87%30.39 "HgN/A
3:50 am41 °FClear.3 mph87%30.39 "HgN/A
3:20 am43 °FClear.5 mph87%30.42 "HgN/A
2:50 am43 °FClear.9 mph87%30.42 "HgN/A
2:20 am45 °FClear.7 mph81%30.42 "HgN/A
1:50 am45 °FClear.8 mph81%30.42 "HgN/A
1:20 am45 °FClear.7 mph81%30.42 "HgN/A
12:50 am45 °FClear.7 mph87%30.42 "HgN/A
12:20 am45 °FClear.7 mph81%30.42 "HgN/A
11:50 pm
Thu, Sep 19
45 °FClear.7 mph81%30.42 "HgN/A
11:20 pm45 °FClear.6 mph81%30.42 "HgN/A
10:50 pm46 °FClear.5 mph76%30.42 "HgN/A
10:20 pm46 °FClear.3 mph76%30.42 "HgN/A
9:50 pm48 °FClear.2 mph71%30.42 "Hg10 mi
9:20 pm52 °FClear.No wind62%30.42 "Hg10 mi
8:50 pm52 °FClear.No wind62%30.42 "Hg10 mi
8:20 pm52 °FClear.2 mph62%30.42 "Hg10 mi
7:50 pm54 °FClear.3 mph58%30.42 "Hg10 mi
7:20 pm55 °FSunny.5 mph59%30.42 "Hg10 mi
6:50 pm57 °FPassing clouds.3 mph51%30.39 "HgN/A
6:20 pm59 °FPassing clouds.6 mph48%30.39 "HgN/A
5:50 pm61 °FPassing clouds.6 mph45%30.42 "HgN/A
5:20 pm61 °FPassing clouds.7 mph45%30.39 "HgN/A
4:50 pm61 °FSunny.2 mph39%30.39 "Hg10 mi
4:20 pm61 °FPassing clouds.7 mph42%30.42 "HgN/A
3:20 pm61 °FPassing clouds.5 mph42%30.42 "HgN/A
2:50 pm59 °FScattered clouds.6 mph45%30.42 "HgN/A
2:20 pm59 °FPartly sunny.6 mph45%30.42 "HgN/A
1:50 pm59 °FScattered clouds.5 mph48%30.42 "HgN/A
1:20 pm57 °FScattered clouds.6 mph51%30.45 "HgN/A
12:50 pm57 °FPartly sunny.8 mph51%30.45 "HgN/A
12:20 pm55 °FPartly sunny.5 mph55%30.45 "HgN/A
11:50 am55 °FPassing clouds.5 mph63%30.45 "HgN/A
11:20 am55 °FSunny.5 mph63%30.45 "Hg10 mi
Weather by CustomWeather, © 2019

See weather overview